TimeMST,TemperatureF,Dew PointF,Humidity,Sea Level PressureIn,VisibilityMPH,Wind Direction,Wind SpeedMPH,Gust SpeedMPH,PrecipitationIn,Events,Conditions,WindDirDegrees,DateUTC
12:53 AM,59.0,16.0,19,30.13,10.0,East,9.2,-,N/A,,Clear,100,2013-11-07 07:53:00
1:53 AM,55.9,16.0,21,30.13,10.0,Calm,Calm,-,N/A,,Clear,0,2013-11-07 08:53:00
2:53 AM,57.0,10.9,16,30.11,10.0,ESE,5.8,-,N/A,,Clear,110,2013-11-07 09:53:00
3:53 AM,57.0,10.9,16,30.12,10.0,SE,12.7,-,N/A,,Clear,130,2013-11-07 10:53:00
4:53 AM,59.0,9.0,14,30.13,10.0,ESE,15.0,-,N/A,,Clear,120,2013-11-07 11:53:00
5:53 AM,57.9,7.0,13,30.14,10.0,East,10.4,-,N/A,,Clear,100,2013-11-07 12:53:00
6:53 AM,57.0,8.1,14,30.15,10.0,ESE,8.1,-,N/A,,Clear,120,2013-11-07 13:53:00
7:53 AM,63.0,10.9,13,30.16,10.0,SE,17.3,-,N/A,,Clear,130,2013-11-07 14:53:00
8:53 AM,68.0,17.1,14,30.16,10.0,ESE,26.5,35.7,N/A,,Clear,120,2013-11-07 15:53:00
9:53 AM,71.1,19.0,14,30.14,10.0,ESE,23.0,40.3,N/A,,Clear,110,2013-11-07 16:53:00
10:53 AM,73.9,19.9,13,30.12,10.0,ESE,20.7,34.5,N/A,,Clear,120,2013-11-07 17:53:00
11:53 AM,75.9,19.0,12,30.09,10.0,East,17.3,31.1,N/A,,Clear,100,2013-11-07 18:53:00
12:53 PM,79.0,21.0,12,30.04,10.0,East,20.7,27.6,N/A,,Clear,100,2013-11-07 19:53:00
1:53 PM,80.1,21.9,12,30.01,10.0,East,18.4,27.6,N/A,,Clear,100,2013-11-07 20:53:00
2:53 PM,81.0,21.9,11,29.99,10.0,East,16.1,21.9,N/A,,Clear,90,2013-11-07 21:53:00
3:53 PM,82.0,23.0,11,29.98,10.0,East,13.8,21.9,N/A,,Clear,100,2013-11-07 22:53:00
4:53 PM,80.1,25.0,13,29.98,10.0,East,13.8,-,N/A,,Clear,100,2013-11-07 23:53:00
5:53 PM,75.9,26.1,16,29.99,10.0,East,6.9,-,N/A,,Clear,100,2013-11-08 00:53:00
6:53 PM,73.0,27.0,18,30.00,10.0,East,6.9,-,N/A,,Clear,90,2013-11-08 01:53:00
7:53 PM,69.1,27.0,21,30.00,10.0,ENE,6.9,-,N/A,,Clear,70,2013-11-08 02:53:00
8:53 PM,66.0,25.0,21,30.01,10.0,Calm,Calm,-,N/A,,Clear,0,2013-11-08 03:53:00
9:53 PM,64.9,24.1,21,30.02,10.0,Calm,Calm,-,N/A,,Clear,0,2013-11-08 04:53:00
10:53 PM,66.9,25.0,21,30.01,10.0,ESE,9.2,-,N/A,,Clear,110,2013-11-08 05:53:00
11:53 PM,66.0,27.0,23,30.01,10.0,ESE,9.2,-,N/A,,Clear,120,2013-11-08 06:53:00